Change the Weather History Date:

Saturday, March 30, 2013

  Actual Average (KFLL) Record (KFLL)
Temperature  
Mean Temperature 66 °F 74 °F  
Max Temperature 75 °F 81 °F 90 °F (1970)
Min Temperature 57 °F 68 °F 41 °F (1953)
Degree Days  
Heating Degree Days 0 0  
Month to date heating degree days 7  
Since 1 July heating degree days 109  
Cooling Degree Days 1 9  
Month to date cooling degree days 245  
Year to date cooling degree days 601  
Growing Degree Days 16 (Base 50)    
Moisture  
Dew Point 50 °F    
Average Humidity 56    
Maximum Humidity 81    
Minimum Humidity 34    
Precipitation  
Precipitation 0.00 in 0.13 in 1.72 in (1950)
Month to date precipitation 3.22  
Year to date precipitation 9.81  
Snow  
Snow 0.00 in - - ()
Month to date snowfall  
Since 1 July snowfall  
Snow Depth -    
Sea Level Pressure  
Sea Level Pressure 30.24 in    
Wind  
Wind Speed 5 mph (East)    
Max Wind Speed 13 mph    
Max Gust Speed 22 mph    
Visibility 10 miles    
Events      
T = Trace of Precipitation, MM = Missing Value Source: NWS Daily Summary

Daily Weather History Graph

Daily Weather History Graph

Search for Another Location

Airport or City:

Trip Planner

Search our weather history database for the weather conditions in past years. The results will help you decide how hot, cold, wet, or windy it might be!

Date:

Astronomy

Mar. 30, 2013 Rise Set
Actual Time 7:13 AM EDT 7:37 PM EDT
Civil Twilight 6:50 AM EDT 8:00 PM EDT
Nautical Twilight 6:23 AM EDT 8:27 PM EDT
Astronomical Twilight 5:56 AM EDT 8:54 PM EDT
Moon 11:18 PM EDT (3/30) 9:29 AM EDT (3/30)
Length of Visible Light 13h 09m
Length of Day
12h 23m
Waning Gibbous, 86% of the Moon is Illuminated
Mar 30
Waning Gibbous
Apr 3
Last Quarter
Apr 10
New
Apr 18
First Quarter
Apr 25
Full

Hourly Weather History & Observations

Time (EDT) Temp. Dew Point Humidity Pressure Visibility Wind Dir Wind Speed Gust Speed Precip Events Conditions
12:53 AM 63.0 °F 50.0 °F 63% 30.26 in 10.0 mi Calm Calm - N/A   Clear
1:53 AM 61.0 °F 50.0 °F 67% 30.25 in 10.0 mi ENE 3.5 mph - N/A   Clear
2:53 AM 60.1 °F 50.0 °F 69% 30.24 in 10.0 mi Calm Calm - N/A   Clear
3:53 AM 60.1 °F 50.0 °F 69% 30.24 in 10.0 mi Calm Calm - N/A   Clear
4:53 AM 59.0 °F 51.1 °F 75% 30.23 in 10.0 mi North 3.5 mph - N/A   Clear
5:53 AM 57.0 °F 51.1 °F 81% 30.23 in 10.0 mi North 3.5 mph - N/A   Clear
6:53 AM 57.9 °F 51.1 °F 78% 30.24 in 10.0 mi North 3.5 mph - N/A   Clear
7:53 AM 57.9 °F 52.0 °F 81% 30.26 in 10.0 mi Calm Calm - N/A   Clear
8:53 AM 68.0 °F 54.0 °F 61% 30.28 in 10.0 mi ENE 4.6 mph - N/A   Clear
9:53 AM 72.0 °F 48.9 °F 44% 30.28 in 10.0 mi East 10.4 mph 16.1 mph N/A   Clear
10:53 AM 73.0 °F 48.0 °F 41% 30.29 in 10.0 mi ENE 11.5 mph - N/A   Partly Cloudy
11:53 AM 73.9 °F 46.9 °F 38% 30.28 in 10.0 mi ENE 12.7 mph 21.9 mph N/A   Clear
12:53 PM 75.0 °F 45.0 °F 34% 30.27 in 10.0 mi ESE 10.4 mph - N/A   Clear
1:53 PM 75.0 °F 48.9 °F 40% 30.25 in 10.0 mi East 11.5 mph 17.3 mph N/A   Clear
2:53 PM 75.0 °F 48.9 °F 40% 30.22 in 10.0 mi East 11.5 mph 18.4 mph N/A   Clear
3:53 PM 75.9 °F 50.0 °F 40% 30.20 in 10.0 mi East 11.5 mph 19.6 mph N/A   Clear
4:53 PM 73.9 °F 50.0 °F 43% 30.19 in 10.0 mi SSE 6.9 mph - N/A   Clear
5:53 PM 73.0 °F 50.0 °F 44% 30.19 in 10.0 mi East 11.5 mph 17.3 mph N/A   Clear
6:53 PM 71.1 °F 50.0 °F 47% 30.19 in 10.0 mi East 11.5 mph - N/A   Clear
7:53 PM 69.1 °F 51.1 °F 53% 30.20 in 10.0 mi East 8.1 mph - N/A   Clear
8:53 PM 69.1 °F 53.1 °F 57% 30.21 in 10.0 mi ESE 6.9 mph - N/A   Partly Cloudy
9:53 PM 68.0 °F 52.0 °F 56% 30.22 in 10.0 mi ESE 6.9 mph - N/A   Scattered Clouds
10:53 PM 66.9 °F 52.0 °F 59% 30.23 in 10.0 mi ESE 5.8 mph - N/A   Clear
11:53 PM 66.0 °F 53.1 °F 63% 30.23 in 10.0 mi ESE 5.8 mph - N/A   Clear